ABS-3A

Last updated on June 17, 2019, 3:36 a.m. UTC

1 40424U 15010A   19167.80382626 -.00000034  00000-0  00000+0 0  9997
2 40424   0.0117 123.3929 0002106 242.4880 185.2575  1.00271840 15766
UTC
Height (km)
Latitude
Longitude
Inclination
Orbital Period
UTC large
Height (km)
Speed (km/s)
/
Latitude / Longitude
Inclination (degrees)
Orbital Period (minutes)
Azimuth
Elevation
Range (km)
Doppler Factor
iOS Compass Heading
iOS Angle

Next 30 passes for location: Hong Kong

Rise time Rise Azimuth (degrees) Set time Set Azimuth (degrees) Duration Max altitude (degrees)

No matching passes for this satellites